Location: *
(58.7167°N, 26.1833°E)
Time: 10:23:59
(UTC+00:00)

Genesis I - Pass Details

Date: 25 August 2019
Orbit: 485 x 539 km, 64.5° (Epoch: 15 September)

Event Time Altitude Azimuth Distance (km) Brightness Sun altitude
Rises 21:35:11 0° 305° (NW) 2,692 7.5 -20.1°
Reaches altitude 10° 21:37:24 10° 303° (WNW) 1,791 6.5 -20.2°
Maximum altitude 21:41:24 69° 221° (SW) 567 3.1 -20.3°
Enters shadow 21:41:42 66° 187° (S) 580 3.1 -20.3°
